RH
87 85 81 76 73 75 84 95 102 103 104 106 105 103 103 103 102 99 96 98 101 102 103 103 103 102 100 100 101 100 100 100 100 100 100 100 100 100 100 100 101 97 89 86 85 84 85 87 90 91 91 91 90 88 85 82 79 77 74 72 72 74 75
96 93 88 83 81 83 90 98 103 104 105 106 105 104 102 101 101 100 98 100 102 102 102 102 102 102 100 100 101 100 100 100 100 100 100 100 100 100 100 100 101 101 96 90 89 89 89 88 88 88 87 89 89 87 84 79 75 73 72 71 72 73 76
102 100 97 94 93 93 96 101 103 103 103 104 104 104 104 104 104 103 101 102 102 101 102 102 102 102 100 100 102 101 100 100 100 101 100 100 100 100 101 100 100 102 99 95 94 93 91 89 88 87 85 85 86 84 80 76 74 74 73 74 75 77 80
104 103 103 102 102 101 101 101 102 103 103 103 103 104 104 104 105 105 103 102 101 100 101 102 101 101 100 100 102 101 100 101 100 101 101 101 101 100 100 100 100 101 101 100 99 95 92 91 90 88 84 82 83 82 79 79 78 78 78 79 81 83 84
101 102 101 101 101 101 101 101 101 102 101 101 101 102 102 101 104 105 103 102 101 100 102 102 100 100 100 101 101 100 100 101 100 101 101 101 101 100 100 100 100 101 102 101 101 99 95 93 91 88 84 82 83 82 81 82 82 83 84 85 85 87 90
100 100 100 100 100 100 100 100 100 101 101 100 100 101 101 101 102 104 102 101 102 102 103 102 100 100 100 100 100 100 100 101 100 101 100 100 100 100 100 101 100 101 101 100 101 101 98 94 90 88 85 83 84 84 84 84 85 85 87 89 91 95 98
100 100 100 100 100 100 100 100 100 100 100 100 100 100 101 100 99 98 97 97 99 102 102 102 102 101 101 101 101 101 101 100 100 100 100 100 100 100 100 101 100 100 100 100 101 101 99 97 94 92 90 88 87 87 86 86 88 90 94 98 101 102 103
100 99 99 99 99 99 99 100 99 100 100 100 100 101 99 95 91 89 89 91 96 100 102 103 102 101 101 102 101 100 100 100 100 101 100 101 101 100 101 101 100 100 101 100 101 101 100 100 98 96 95 92 91 90 90 91 96 99 101 102 103 103 102
101 100 100 100 101 100 100 100 100 100 100 99 98 96 90 86 84 84 86 90 94 98 101 102 102 101 101 101 101 101 102 102 103 103 103 103 102 102 103 102 100 101 101 100 101 101 100 101 100 98 97 96 95 96 98 99 101 101 100 102 103 102 100
98 97 95 93 92 92 93 93 94 94 94 93 90 86 83 82 83 85 88 91 95 98 101 103 103 102 102 102 102 102 101 101 102 103 103 104 103 103 103 102 101 101 101 101 101 101 100 100 100 98 99 100 99 100 102 102 101 100 101 103 103 101 99
88 87 86 85 85 86 88 90 91 91 90 89 86 85 84 86 87 90 92 93 95 96 98 99 100 100 99 99 98 98 98 99 100 101 102 104 105 105 103 102 103 101 101 101 101 100 100 100 99 99 100 100 100 101 102 101 101 101 101 102 102 100 99
79 79 80 81 82 83 83 84 84 83 83 83 83 85 86 87 89 91 93 94 95 95 95 95 96 96 96 96 97 98 99 100 101 102 104 105 105 104 101 101 101 100 100 100 100 100 100 99 100 100 100 100 100 100 100 100 100 100 100 101 101 100 99
69 68 68 68 69 69 69 69 69 70 72 73 76 80 83 85 86 88 89 92 94 96 97 98 99 100 100 100 101 102 102 102 103 103 103 103 102 101 100 100 100 100 100 100 100 100 99 99 100 100 100 100 100 100 99 99 100 100 100 101 101 100 100
51 52 52 52 53 53 54 55 56 59 62 65 70 75 80 83 86 89 91 93 97 100 101 102 103 103 102 102 102 102 101 101 101 101 100 100 100 100 100 100 100 100 100 100 100 100 99 100 100 100 100 100 100 100 100 100 100 100 100 101 100 99 97
35 35 35 35 36 37 38 40 44 51 58 67 75 82 87 90 94 98 99 100 101 102 102 101 102 102 101 101 101 100 100 100 100 100 100 100 100 100 100 100 100 100 100 100 100 100 100 100 100 100 101 100 100 101 100 100 101 101 100 99 97 96 97
34 32 32 32 32 33 34 35 40 50 65 80 92 97 98 99 101 101 101 101 101 101 100 99 100 100 100 100 100 100 100 100 100 100 100 100 100 100 100 100 100 100 100 100 100 100 100 100 100 100 100 101 101 100 100 101 101 98 96 96 97 98 100
43 41 40 39 39 39 41 43 48 58 74 92 102 103 101 101 100 100 100 100 100 100 100 100 100 100 100 100 100 100 100 100 100 100 100 100 100 100 100 100 100 100 100 100 100 100 101 100 101 101 101 101 101 101 100 100 97 95 96 98 98 99 99
49 50 50 52 54 57 60 65 73 81 88 97 102 103 102 101 100 100 100 100 100 100 100 100 100 100 100 100 100 100 100 100 100 100 100 100 100 100 100 100 100 101 101 100 101 103 103 100 100 101 101 102 102 102 101 101 99 99 101 102 101 100 102
56 60 65 70 75 80 85 91 98 101 100 100 101 101 100 100 100 100 100 101 101 101 101 101 101 101 101 101 101 101 101 101 100 100 100 100 101 100 98 98 101 103 103 103 104 105 103 100 98 98 100 102 104 103 101 102 103 104 104 103 103 103 104
64 69 76 82 88 93 98 102 103 103 102 102 102 103 103 102 102 102 102 101 100 100 100 102 102 102 102 102 102 102 103 102 102 103 103 102 102 100 98 98 98 98 100 101 101 101 101 101 100 98 96 98 102 104 103 102 104 107 108 107 105 104 103
73 75 79 83 86 91 96 100 100 101 102 102 101 102 103 103 103 102 100 98 98 98 99 100 101 102 102 104 104 104 105 103 102 104 106 104 103 102 102 102 101 99 101 102 101 100 101 102 103 102 99 97 99 102 104 104 104 105 106 106 106 104 103
83 85 86 88 89 91 94 97 98 98 100 101 101 102 102 101 102 102 100 99 100 101 101 102 103 104 105 106 105 105 105 103 100 102 104 103 102 102 103 103 102 102 103 104 103 103 103 102 103 105 104 102 100 101 103 105 105 105 105 105 105 104 103
73 72 73 77 83 85 86 88 91 93 95 97 98 100 101 101 101 99 98 98 99 101 103 103 104 105 105 105 105 104 104 103 101 102 102 102 102 102 101 101 101 99 101 103 101 100 98 98 99 102 103 103 101 101 103 104 102 101 100 100 101 103 104
38 37 37 41 48 52 52 54 61 71 81 90 95 97 98 99 98 97 97 97 96 98 101 103 104 105 105 104 103 103 103 102 102 102 101 101 102 102 102 102 100 95 95 98 99 97 96 96 97 99 102 103 103 103 104 102 97 92 89 88 88 91 94
26 25 24 23 25 26 26 25 29 38 50 65 78 88 95 99 100 98 97 96 96 98 101 103 104 106 106 105 105 105 104 104 104 103 102 101 101 101 101 101 99 94 90 89 90 93 95 97 100 102 104 105 105 106 106 104 101 96 94 93 91 89 89
28 27 25 23 22 21 20 20 21 23 27 33 42 54 70 84 93 97 98 99 100 101 103 104 103 102 100 100 100 99 98 98 98 97 96 96 95 95 96 95 94 91 87 82 79 79 82 87 93 100 105 108 108 107 105 103 102 101 102 102 100 96 94
29 27 25 23 22 20 19 18 18 19 21 23 24 28 37 49 62 73 84 94 101 104 105 104 101 97 93 91 89 88 87 86 85 83 82 82 81 81 81 80 79 76 72 68 64 60 58 59 64 71 81 91 100 105 105 103 102 102 101 101 102 100 95
29 27 24 23 20 18 18 17 17 20 21 20 21 22 22 26 35 43 53 66 77 82 82 80 77 74 73 71 68 66 63 60 57 55 53 53 54 55 57 60 61 61 59 57 54 52 48 45 44 46 50 59 71 82 92 99 103 105 103 101 102 101 97
28 25 24 21 19 18 17 17 22 29 32 31 30 25 21 29 38 37 34 40 49 52 51 49 47 46 43 42 40 39 37 36 36 37 38 40 43 46 51 56 60 63 63 62 59 56 53 51 49 47 45 45 48 54 63 75 86 95 100 103 104 104 101
26 24 22 20 18 17 18 23 30 37 41 43 41 34 35 47 51 39 30 36 45 47 46 45 45 44 42 40 39 38 37 37 36 37 38 41 44 47 51 55 59 62 63 63 60 57 54 52 51 49 47 46 45 46 48 53 60 68 77 84 90 94 97
25 23 20 18 18 20 25 33 40 44 48 51 49 49 58 66 58 43 37 41 45 45 45 44 45 45 44 43 43 43 42 43 43 42 42 43 44 46 48 50 53 55 55 55 53 50 48 46 45 44 43 41 40 40 40 41 43 46 49 53 58 65 72
24 22 20 21 24 30 38 45 49 51 55 56 55 59 68 72 64 55 54 53 50 48 48 47 47 46 45 44 44 43 42 43 43 44 43 42 42 41 39 38 39 39 39 39 39 38 37 36 35 34 34 33 32 32 31 30 30 29 29 30 31 34 38
22 21 25 33 42 47 50 53 54 55 57 58 60 62 65 64 60 56 54 52 50 48 46 45 45 44 43 42 42 41 41 41 41 42 42 43 43 44 46 47 47 46 46 47 49 52 55 58 60 60 60 59 58 56 54 52 49 46 43 40 37 35 33
27 30 39 50 57 56 54 53 53 53 52 50 50 52 52 53 55 55 54 53 54 54 53 53 52 51 50 50 50 49 50 51 51 52 52 53 55 56 59 63 66 66 65 64 65 68 72 77 81 85 88 90 91 92 92 90 89 87 86 82 78 74 70
38 48 56 59 54 48 43 42 41 42 44 48 54 62 68 71 71 70 67 63 60 59 57 55 53 51 50 50 48 48 48 47 47 48 48 48 48 49 50 51 52 54 55 55 55 56 57 58 61 64 68 72 76 80 83 86 89 93 98 101 102 102 101
47 54 52 44 37 33 36 43 52 60 68 74 77 77 74 69 64 61 58 54 52 51 49 47 46 45 45 44 44 44 43 43 43 43 43 43 43 43 43 44 44 45 46 47 48 49 49 49 50 50 51 53 55 57 59 61 63 66 70 76 82 88 93
Wind_Speed
79 79 79 79 79 79 80 81 81 82 82 81 81 81 81 81 82 82 82 83 83 83 83 83 82 82 82 84 85 85 84 84 84 85 85 86 86 86 86 87 88 88 85 85 85 85 85 85 86 86 86 86 87 87 87 87 86 86 86 85 85 85 85
79 79 79 79 80 80 81 82 83 84 84 83 83 82 83 83 84 84 84 85 85 85 85 85 84 83 83 85 86 86 85 85 85 86 86 86 87 87 87 87 88 88 87 87 87 87 86 86 87 87 87 87 87 87 88 87 87 87 87 86 85 85 85
78 78 78 79 80 81 82 83 85 86 86 86 85 85 85 85 86 86 86 87 87 87 87 87 85 85 85 86 87 86 86 86 86 87 87 87 87 87 87 87 89 89 89 88 88 88 88 87 87 87 87 87 87 88 88 87 87 87 86 86 85 85 85
79 79 79 80 81 82 83 85 86 87 88 88 88 87 88 88 88 89 89 88 88 88 88 88 87 86 86 87 87 86 86 86 87 87 87 87 87 87 87 87 89 89 89 89 89 89 88 87 87 86 86 87 87 88 88 87 87 86 86 86 86 86 86
80 80 81 81 82 83 84 85 86 87 87 87 88 88 89 89 90 90 89 89 88 88 88 89 88 87 86 87 87 86 86 86 87 87 87 87 87 87 87 88 88 88 88 89 89 88 88 87 87 87 86 87 87 87 87 87 87 86 86 86 86 86 86
81 82 83 83 83 84 84 85 86 87 88 89 90 90 90 90 90 89 89 88 88 88 88 88 87 86 86 87 87 86 86 86 86 87 87 87 86 87 87 88 88 88 88 88 88 88 88 88 87 87 86 86 86 87 87 87 87 87 86 86 86 86 86
84 85 86 86 86 87 87 88 89 90 91 91 91 91 90 89 89 88 88 88 88 87 87 86 86 85 86 86 86 85 85 85 86 86 87 87 87 87 88 88 87 87 87 88 87 88 89 88 88 87 86 86 86 87 87 87 86 86 85 85 85 85 85
86 87 87 87 87 88 88 88 89 89 89 89 89 89 90 89 89 89 88 88 87 86 85 85 85 84 84 84 84 84 84 85 86 86 87 87 87 88 88 88 87 87 87 87 87 88 88 88 87 87 86 86 86 86 85 85 85 85 84 84 84 84 84
84 84 85 85 86 86 87 87 87 87 88 88 89 90 91 90 90 88 87 86 85 84 84 83 83 83 83 83 84 84 85 86 87 87 88 88 88 88 87 87 87 87 86 86 87 87 87 87 86 85 85 84 84 84 83 83 84 84 83 83 83 83 83
85 86 86 87 88 89 89 90 90 90 90 91 91 91 91 89 87 86 85 84 83 83 83 83 83 83 84 84 85 85 86 86 87 87 87 87 86 86 86 86 85 85 85 85 85 85 85 85 84 83 83 82 82 82 82 82 82 82 81 82 82 82 82
87 88 89 89 89 89 89 89 89 88 88 88 88 88 87 85 85 84 84 83 83 83 83 84 84 84 85 85 85 85 85 86 86 86 85 85 84 84 84 83 83 83 83 83 83 82 83 83 82 81 81 80 80 80 80 80 80 80 80 81 81 81 80
86 86 86 86 86 86 85 85 85 84 84 84 83 83 84 83 83 83 83 83 83 83 84 84 84 84 84 84 84 84 84 84 83 83 83 82 82 82 81 81 81 81 81 81 81 81 81 80 79 79 79 78 78 79 79 79 79 79 79 80 80 80 79
85 85 85 85 85 85 85 85 84 84 83 83 82 82 83 83 83 82 82 82 82 82 82 82 82 82 82 81 81 81 81 81 81 80 80 79 79 79 79 78 78 78 78 79 79 79 78 78 78 78 77 76 77 78 78 78 78 79 79 80 80 79 79
84 85 86 86 86 86 86 86 86 85 84 84 83 83 83 83 82 82 81 81 81 80 80 79 79 79 78 78 78 77 77 77 77 77 77 77 77 77 76 76 76 76 76 77 77 77 77 76 77 76 76 76 77 78 78 78 78 79 80 80 80 80 81
80 81 82 83 84 84 84 84 84 84 84 83 83 83 82 81 80 80 79 79 78 78 77 76 76 75 75 74 74 73 74 74 74 75 75 75 75 75 75 75 75 75 76 77 77 77 77 77 77 76 77 77 78 79 79 79 80 80 81 81 81 81 81
73 74 75 76 77 78 78 79 79 79 79 79 79 78 77 76 76 75 75 74 74 73 72 72 71 71 71 71 71 70 71 72 73 74 74 74 74 75 75 75 75 75 76 77 78 77 77 77 77 77 78 78 79 80 80 81 82 82 82 82 82 81 80
66 67 67 68 69 70 70 71 72 72 72 72 72 72 71 70 69 69 69 69 69 68 68 68 69 69 69 69 69 70 71 73 74 75 75 75 75 76 76 75 75 76 77 78 78 78 78 78 79 79 80 80 81 81 82 83 84 83 83 83 82 81 80
61 62 62 62 62 62 63 64 64 65 65 66 67 68 67 66 67 67 67 67 67 68 68 68 69 69 70 70 70 70 71 73 74 75 75 75 76 76 76 75 75 77 78 78 79 80 80 81 81 82 82 83 83 83 84 84 84 83 83 83 82 81 80
56 56 57 56 57 57 57 58 60 61 62 63 65 65 65 65 66 66 67 67 67 67 68 68 69 69 70 70 70 70 71 72 73 74 74 74 76 76 75 76 77 78 79 79 80 81 82 83 83 83 83 84 84 84 84 84 83 83 83 82 81 80 79
51 52 53 53 53 53 54 54 56 58 60 61 63 64 65 65 66 66 67 67 67 68 68 69 69 69 70 70 70 71 71 72 73 74 74 75 75 76 76 77 78 79 79 80 80 81 81 82 82 82 82 82 82 83 82 81 81 81 81 79 78 77 77
49 50 51 52 52 52 53 53 54 56 58 59 60 62 63 64 64 65 66 66 66 66 67 67 68 68 68 69 69 69 70 70 71 72 73 74 73 73 74 75 76 76 77 78 78 78 78 78 79 79 80 79 79 79 78 78 77 77 77 76 75 75 74
47 48 49 50 51 52 53 54 55 56 57 58 59 60 61 62 62 63 63 63 63 63 64 64 65 65 66 66 67 67 68 68 69 70 71 71 71 71 72 72 73 72 73 74 74 74 75 74 75 75 75 76 75 75 75 75 74 73 73 73 73 73 73
45 46 47 49 51 52 53 54 55 56 57 58 59 60 61 61 61 62 62 61 62 62 62 62 62 63 63 64 64 65 66 67 67 68 68 69 69 70 70 71 71 71 71 72 72 72 73 73 73 73 73 74 74 74 74 75 75 74 74 74 74 74 74
44 45 47 50 52 54 55 56 57 58 58 59 59 60 60 61 61 61 61 61 61 61 61 61 62 62 62 63 63 64 65 66 67 67 68 69 70 71 71 72 73 73 73 73 74 74 74 74 74 75 75 75 76 76 77 78 78 78 78 78 78 78 77
47 48 49 52 55 57 58 60 61 62 63 63 63 63 63 63 63 62 62 62 62 62 62 63 63 63 64 64 65 65 66 67 68 69 70 71 72 73 74 75 76 76 77 76 76 76 76 76 77 78 78 79 80 81 81 81 82 82 82 82 82 82 81
50 51 53 56 58 59 61 63 64 66 68 68 68 68 67 67 67 66 66 65 65 65 65 66 66 67 67 67 68 68 69 70 71 72 73 74 75 76 77 78 79 79 80 80 80 79 79 79 79 79 80 81 82 83 83 83 83 84 84 84 84 84 84
53 54 56 59 61 62 63 65 66 68 70 71 71 71 71 71 71 70 70 69 69 69 70 70 71 71 71 71 71 72 72 73 74 74 75 75 76 77 78 79 79 80 81 81 81 81 81 81 81 80 81 81 82 82 82 83 83 84 84 85 86 86 85
56 58 59 61 63 64 65 66 66 67 69 70 70 71 71 71 72 72 72 71 72 73 73 74 74 73 73 74 74 74 74 75 75 75 75 76 76 77 77 78 78 79 80 80 80 81 81 81 81 81 80 80 80 80 80 81 82 82 83 84 85 86 85
59 60 61 63 64 65 64 63 62 62 64 65 67 68 68 68 69 71 71 71 72 73 74 74 74 74 74 74 74 74 75 75 75 75 75 76 76 77 77 78 78 78 79 80 80 81 81 81 82 82 81 81 81 81 81 81 81 82 82 83 84 84 83
61 62 63 64 64 63 61 59 57 57 58 59 61 62 61 61 64 67 67 67 68 70 71 72 72 73 73 73 74 74 75 75 75 75 76 76 76 77 77 78 79 79 80 81 81 82 82 82 83 83 83 83 83 83 83 83 83 83 83 84 84 83 83
63 64 64 64 62 60 57 54 53 52 53 54 55 55 54 56 59 61 61 62 63 65 66 67 68 69 70 71 72 72 73 74 74 75 75 76 76 77 77 78 78 79 80 80 81 81 81 82 82 82 82 82 82 82 82 82 83 83 83 83 83 82 82
63 64 64 62 59 56 53 51 50 49 49 49 49 48 49 51 53 54 54 56 57 59 60 62 63 64 66 67 68 69 69 70 70 71 72 72 73 74 74 75 75 75 76 76 77 77 77 78 78 78 78 78 78 78 78 79 79 79 79 79 79 79 78
63 62 60 58 56 54 52 51 50 48 47 46 45 44 45 46 47 47 48 49 50 52 53 54 56 57 58 59 60 62 63 63 64 65 65 66 67 68 69 70 71 72 72 72 72 73 73 73 74 74 75 75 75 75 75 74 74 75 75 75 74 73 73
61 59 56 54 53 53 52 51 49 48 47 45 43 43 42 42 42 43 44 44 45 46 47 49 50 52 53 54 56 57 58 59 61 62 63 64 65 66 67 68 70 71 72 73 73 73 74 74 75 75 75 75 75 75 75 75 74 74 74 74 73 72 70
56 54 52 51 51 51 49 48 46 45 43 42 40 40 40 41 41 43 44 45 45 46 47 48 49 51 52 53 55 56 57 58 59 60 62 63 64 65 66 67 68 69 71 72 73 74 75 75 76 76 77 77 77 78 78 77 77 76 76 76 75 74 72
52 51 50 48 46 44 43 41 40 40 40 40 40 40 41 41 42 42 43 44 45 46 47 48 49 50 51 52 53 54 55 56 57 59 60 61 62 63 64 65 66 67 68 69 70 72 73 73 74 75 75 76 76 77 77 77 77 78 78 77 77 76 75
Wind_Direction
265 266 267 268 268 268 267 267 267 267 267 267 268 268 268 269 269 270 270 271 271 271 271 271 271 272 273 273 273 272 272 272 272 272 272 273 273 273 274 274 274 275 275 274 274 274 273 273 273 273 273 273 274 274 274 273 273 273 273 273 273 273 273
266 266 267 268 268 268 267 267 267 267 267 267 268 268 269 269 270 270 271 271 271 271 271 271 271 272 273 273 272 272 272 272 272 272 272 273 273 273 274 274 274 275 275 274 274 274 273 273 272 273 273 273 273 273 273 273 273 273 274 273 273 273 272
268 268 268 268 268 268 268 267 267 267 267 268 268 269 269 270 271 271 272 272 272 271 271 271 272 273 273 272 271 271 271 271 271 272 272 272 273 273 273 273 274 274 274 274 274 273 273 273 272 272 272 272 272 273 273 274 274 274 273 273 273 272 272
270 271 271 271 271 270 269 269 268 268 268 269 269 270 270 271 272 273 273 273 272 272 272 272 273 273 272 271 270 270 270 271 271 271 272 272 272 272 273 273 273 274 274 274 274 273 273 272 272 272 272 272 272 273 273 274 274 273 273 272 272 271 271
272 273 273 273 272 272 271 270 269 269 269 270 270 271 272 273 274 274 274 274 273 273 273 274 273 273 271 270 270 270 270 271 271 271 271 271 272 272 272 273 273 273 274 273 273 273 273 272 272 272 272 272 273 273 273 273 273 272 272 271 271 271 271
272 273 273 273 272 271 270 270 270 270 271 271 272 273 273 273 274 274 274 274 274 274 274 273 272 271 270 270 270 270 270 271 271 271 271 271 272 272 272 272 273 273 273 273 273 273 272 272 272 272 272 272 272 272 272 272 272 271 271 271 271 271 271
273 273 273 273 272 272 271 271 272 272 273 273 273 273 272 273 274 274 274 274 274 273 272 271 271 270 270 270 270 270 270 270 270 271 271 271 272 272 272 272 272 272 272 272 272 272 272 272 272 272 272 272 272 271 271 271 272 271 271 271 270 270 269
274 274 274 273 273 273 273 273 273 273 273 273 273 273 273 274 275 275 275 274 273 272 271 271 270 270 270 270 270 270 270 270 270 270 271 271 272 272 272 272 271 271 271 271 271 271 271 271 271 271 271 271 271 271 271 271 271 270 270 269 269 268 268
274 273 273 274 274 274 274 274 274 274 274 274 274 275 276 276 276 275 274 273 272 271 270 270 270 270 269 269 269 269 269 270 270 270 271 271 271 271 271 271 271 270 270 270 270 270 271 271 271 271 271 271 271 271 271 270 269 269 269 269 268 268 268
275 275 275 275 275 275 275 275 275 275 275 276 276 276 276 275 274 273 272 271 271 270 270 269 269 269 269 269 269 269 270 270 270 270 271 271 271 271 271 270 270 270 270 270 270 270 270 270 270 271 270 270 270 270 269 269 269 269 268 268 267 267 267
277 277 277 277 276 276 276 276 276 275 275 275 275 274 274 273 272 271 271 271 270 270 269 269 269 269 269 269 270 270 270 270 271 271 271 271 271 271 270 270 270 270 270 269 269 269 269 269 270 270 269 269 269 269 268 268 268 267 266 266 266 265 265
277 277 276 276 276 275 275 274 274 274 274 273 273 273 272 272 271 271 271 271 271 270 270 270 270 270 270 270 270 271 271 271 271 271 271 271 271 270 270 270 270 269 269 269 268 268 268 269 269 268 268 268 268 267 267 266 266 265 265 265 265 265 265
276 276 275 275 275 274 274 274 273 273 272 272 272 271 271 271 271 271 271 271 271 271 271 270 270 270 270 271 271 271 271 271 271 271 270 270 269 269 269 268 268 268 268 268 267 267 267 268 267 267 267 267 266 266 265 265 265 265 265 264 264 264 264
275 274 274 274 274 273 273 273 272 272 271 271 270 270 270 270 270 270 270 270 270 270 270 270 270 270 270 270 270 270 270 270 269 269 268 267 267 267 267 266 266 266 266 266 266 266 267 267 266 266 266 266 266 266 266 266 266 265 265 265 265 265 265
275 274 274 273 273 273 272 272 271 271 271 270 270 270 270 270 270 270 270 270 270 270 270 270 270 270 269 269 269 269 268 268 267 266 266 265 265 265 265 265 265 265 265 265 266 266 266 266 266 267 266 266 266 266 267 266 266 266 266 266 267 267 268
277 276 275 275 274 274 273 273 273 272 272 272 272 271 271 271 271 271 271 271 271 270 270 269 269 269 268 268 267 267 266 266 265 265 265 265 265 265 265 265 265 266 266 266 266 266 267 267 267 267 267 267 267 267 267 267 267 267 268 268 269 269 269
280 280 279 278 277 276 275 274 274 274 274 273 273 273 273 272 272 271 271 270 270 269 269 269 268 268 267 267 267 267 266 266 266 266 266 266 266 265 265 266 266 266 266 267 267 267 267 267 267 267 267 267 268 268 268 268 268 269 269 269 269 269 269
283 282 282 282 281 280 278 276 275 274 274 273 273 272 272 271 270 269 269 268 268 268 268 268 268 268 267 267 267 267 267 267 267 267 267 267 266 266 266 267 267 267 267 267 267 267 267 267 267 268 268 268 268 268 268 268 269 269 268 268 268 269 268
284 283 283 283 283 282 280 279 277 275 274 273 272 271 270 269 269 268 268 268 268 268 268 268 268 268 268 268 268 268 268 268 268 268 268 268 268 268 268 268 268 267 267 267 267 268 268 268 268 267 268 268 268 268 268 268 268 268 268 268 268 268 267
284 284 284 284 283 283 281 280 278 276 275 274 273 272 271 270 270 269 269 269 269 269 270 270 270 270 270 269 269 269 269 269 269 269 268 268 268 269 269 268 267 267 267 267 267 267 268 268 268 267 267 267 267 267 267 267 268 268 268 268 267 267 267
287 286 286 286 285 284 283 281 280 278 277 276 275 274 273 272 271 271 270 270 270 270 270 270 270 270 270 270 270 269 269 269 268 268 268 268 268 268 268 267 267 267 266 266 267 267 267 267 268 268 268 267 267 267 267 267 267 267 267 267 266 266 266
290 290 289 289 287 286 284 283 281 280 279 278 277 276 275 274 273 272 272 271 271 270 270 270 270 270 270 269 269 268 268 267 267 267 268 268 267 267 266 266 266 266 266 266 266 266 266 266 267 267 268 267 267 267 267 266 265 265 265 266 266 265 265
293 293 292 291 290 288 287 285 283 282 280 279 278 277 276 275 274 273 272 271 271 270 270 270 270 269 269 269 268 268 268 267 267 267 267 267 267 267 266 266 265 265 265 265 265 265 265 265 265 265 265 266 266 266 265 265 264 263 263 263 263 263 263
295 295 294 293 291 290 289 287 286 284 282 280 278 277 276 275 274 273 272 272 271 270 270 269 269 268 268 267 267 267 267 267 267 267 267 267 267 267 267 266 266 265 265 264 264 265 265 265 264 264 264 264 264 264 264 264 263 263 262 262 262 261 262
298 297 297 294 292 291 290 288 286 284 282 280 278 277 276 275 274 273 273 272 271 271 270 269 268 267 267 267 266 267 267 267 267 267 267 267 268 268 268 267 267 267 266 266 265 265 265 265 265 265 265 264 264 264 264 264 264 264 264 264 263 263 262
299 299 298 296 294 293 291 289 286 283 280 278 277 276 275 274 273 273 272 272 272 271 270 269 268 267 267 267 267 267 267 268 268 268 269 269 269 269 269 269 268 268 268 268 267 266 265 265 265 264 264 264 264 264 265 265 265 265 265 265 264 264 263
299 299 298 297 296 295 293 290 287 283 280 278 276 275 273 272 272 271 271 271 271 271 270 270 269 269 269 269 269 269 269 269 269 269 269 269 269 269 269 269 269 269 269 269 268 267 266 266 265 264 264 263 264 264 264 264 264 264 264 265 265 264 264
301 300 300 299 298 297 295 291 288 284 282 279 278 276 274 273 272 271 270 270 270 270 270 270 270 270 270 270 270 270 270 270 270 269 269 269 269 269 269 269 269 269 269 268 268 268 267 267 266 265 264 264 263 263 263 263 263 263 263 263 264 264 264
302 301 301 300 300 298 296 293 289 286 283 282 280 278 277 276 274 273 271 271 271 271 271 271 271 271 271 271 271 270 270 270 270 269 269 269 269 269 269 268 268 268 268 268 268 268 268 267 267 266 266 265 264 264 263 263 262 262 262 262 263 263 264
303 303 303 302 301 300 297 295 291 288 286 284 282 281 280 278 276 275 274 273 272 272 272 272 272 272 272 272 272 272 271 271 271 270 270 270 269 269 269 268 268 268 268 268 268 268 268 267 267 267 266 266 265 265 264 263 263 262 262 262 263 263 264
306 306 305 305 304 302 300 298 296 293 290 288 286 285 284 281 279 278 277 276 275 274 274 273 273 273 273 273 272 272 272 272 272 272 271 271 270 270 269 268 268 268 268 268 268 267 267 267 267 266 266 266 265 265 264 264 263 263 262 262 263 263 263
308 308 308 307 305 303 302 302 300 298 296 293 291 289 287 285 283 282 281 279 278 277 276 276 275 275 274 274 274 273 273 273 272 272 272 271 271 271 270 269 269 268 267 267 267 267 266 266 266 266 266 265 265 264 264 264 263 263 263 262 262 262 262
310 309 309 307 306 305 305 304 304 303 301 299 297 295 292 290 288 287 285 284 282 281 280 279 278 277 277 276 276 275 275 274 274 273 272 272 271 271 270 270 270 269 268 267 266 266 266 266 265 265 265 265 265 264 264 263 263 263 263 262 262 262 261
311 310 309 308 306 306 305 305 305 305 304 303 302 301 299 297 295 294 292 290 288 286 285 284 282 281 280 279 278 277 276 275 275 274 273 272 271 271 270 270 269 269 269 268 267 267 266 265 265 265 265 264 264 264 263 263 263 263 263 263 262 262 261
310 309 308 307 306 305 305 305 305 305 305 305 305 304 302 301 299 298 296 295 293 291 289 287 286 284 283 282 280 279 278 277 276 275 274 273 272 271 270 269 269 268 268 268 268 267 267 266 265 265 264 264 263 263 263 263 263 262 262 262 262 262 261
309 308 307 307 306 306 306 306 307 307 307 306 306 305 304 303 302 300 299 298 296 295 293 291 289 288 286 285 283 282 280 279 277 276 275 274 273 272 271 270 269 268 267 267 267 267 266 266 265 265 264 263 263 263 263 262 262 262 261 261 261 261 260